TimeEDT,TemperatureF,Dew PointF,Humidity,Sea Level PressureIn,VisibilityMPH,Wind Direction,Wind SpeedMPH,Gust SpeedMPH,PrecipitationIn,Events,Conditions,WindDirDegrees,DateUTC
12:11 AM,33.8,30.2,87,30.37,10.0,SE,4.6,-,N/A,,Clear,140,2012-10-13 04:11:00
12:31 AM,33.8,30.2,87,30.36,10.0,SSE,5.8,-,N/A,,Clear,150,2012-10-13 04:31:00
12:51 AM,33.8,30.2,87,30.36,10.0,Calm,Calm,-,N/A,,Clear,0,2012-10-13 04:51:00
1:12 AM,35.6,32.0,87,30.35,10.0,SSE,6.9,-,N/A,,Clear,160,2012-10-13 05:12:00
1:52 AM,35.6,32.0,87,30.35,10.0,SSE,4.6,-,N/A,,Clear,150,2012-10-13 05:52:00
2:32 AM,35.6,32.0,87,30.33,10.0,ESE,3.5,-,N/A,,Clear,120,2012-10-13 06:32:00
2:52 AM,33.8,32.0,93,30.33,10.0,SE,3.5,-,N/A,,Clear,140,2012-10-13 06:52:00
3:12 AM,33.8,30.2,87,30.33,10.0,SSE,4.6,-,N/A,,Clear,150,2012-10-13 07:12:00
3:32 AM,32.0,30.2,93,30.32,10.0,SSE,4.6,-,N/A,,Clear,150,2012-10-13 07:32:00
3:52 AM,32.0,30.2,93,30.31,10.0,SSE,3.5,-,N/A,,Clear,150,2012-10-13 07:52:00
4:12 AM,32.0,30.2,93,30.31,10.0,SSE,4.6,-,N/A,,Clear,160,2012-10-13 08:12:00
4:33 AM,33.8,30.2,87,30.30,10.0,Calm,Calm,-,N/A,,Clear,0,2012-10-13 08:33:00
4:53 AM,33.8,32.0,93,30.30,10.0,South,3.5,-,N/A,,Clear,180,2012-10-13 08:53:00
5:13 AM,33.8,32.0,93,30.29,10.0,South,3.5,-,N/A,,Clear,170,2012-10-13 09:13:00
5:33 AM,33.8,32.0,93,30.29,10.0,SSE,3.5,-,N/A,,Scattered Clouds,150,2012-10-13 09:33:00
5:53 AM,33.8,32.0,93,30.29,10.0,SSE,4.6,-,N/A,,Scattered Clouds,160,2012-10-13 09:53:00
6:13 AM,33.8,32.0,93,30.29,10.0,Calm,Calm,-,N/A,,Scattered Clouds,0,2012-10-13 10:13:00
6:33 AM,35.6,32.0,87,30.29,10.0,SSE,3.5,-,N/A,,Scattered Clouds,160,2012-10-13 10:33:00
6:53 AM,35.6,33.8,93,30.29,10.0,SSE,3.5,-,N/A,,Scattered Clouds,160,2012-10-13 10:53:00
7:13 AM,35.6,33.8,93,30.28,10.0,SSE,3.5,-,N/A,,Clear,160,2012-10-13 11:13:00
7:34 AM,35.6,33.8,93,30.27,10.0,SSE,3.5,-,N/A,,Clear,150,2012-10-13 11:34:00
7:54 AM,37.4,33.8,87,30.26,10.0,NE,4.6,-,N/A,,Clear,40,2012-10-13 11:54:00
8:14 AM,37.4,33.8,87,30.25,10.0,NE,5.8,-,N/A,,Clear,40,2012-10-13 12:14:00
8:34 AM,39.2,33.8,81,30.25,10.0,SSE,5.8,-,N/A,,Scattered Clouds,150,2012-10-13 12:34:00
8:54 AM,39.2,33.8,81,30.27,10.0,South,3.5,-,N/A,,Mostly Cloudy,190,2012-10-13 12:54:00
9:14 AM,41.0,35.6,81,30.28,10.0,South,4.6,-,N/A,,Drizzle,190,2012-10-13 13:14:00
9:54 AM,39.2,35.6,87,30.25,10.0,South,8.1,-,N/A,Rain,Light Rain,170,2012-10-13 13:54:00
10:29 AM,41.0,37.4,87,30.24,5.0,South,9.2,-,N/A,,Overcast,170,2012-10-13 14:29:00
10:50 AM,41.0,39.2,93,30.22,10.0,South,8.1,-,N/A,Rain,Light Rain,170,2012-10-13 14:50:00
11:30 AM,42.8,39.2,87,30.18,10.0,SSE,9.2,-,N/A,,Light Drizzle,160,2012-10-13 15:30:00
11:50 AM,42.8,41.0,93,30.17,10.0,SSE,9.2,-,N/A,Rain,Light Rain,160,2012-10-13 15:50:00
12:10 PM,42.8,41.0,93,30.15,7.0,South,11.5,-,N/A,Rain,Light Rain,170,2012-10-13 16:10:00
12:30 PM,42.8,42.8,100,30.13,10.0,SSE,10.4,-,N/A,Rain,Light Rain,160,2012-10-13 16:30:00
12:50 PM,44.6,42.8,93,30.11,10.0,South,10.4,-,N/A,,Drizzle,170,2012-10-13 16:50:00
1:30 PM,44.6,44.6,100,30.06,7.0,SSE,11.5,-,N/A,Rain,Light Rain,160,2012-10-13 17:30:00
1:51 PM,44.6,44.6,100,30.04,7.0,SSE,10.4,-,N/A,Rain,Light Rain,150,2012-10-13 17:51:00
2:11 PM,44.6,44.6,100,30.01,4.0,SSE,12.7,-,N/A,Rain,Light Rain,150,2012-10-13 18:11:00
2:31 PM,46.4,46.4,100,30.00,4.0,SSE,12.7,-,N/A,,Overcast,160,2012-10-13 18:31:00
2:51 PM,46.4,46.4,100,29.98,5.0,SSE,11.5,-,N/A,,Overcast,160,2012-10-13 18:51:00
3:11 PM,46.4,46.4,100,29.96,10.0,South,13.8,19.6,N/A,,Overcast,170,2012-10-13 19:11:00
3:31 PM,48.2,46.4,93,29.96,10.0,South,10.4,-,N/A,,Overcast,180,2012-10-13 19:31:00
3:51 PM,48.2,46.4,93,29.95,7.0,South,11.5,-,N/A,Rain,Rain,180,2012-10-13 19:51:00
4:11 PM,48.2,46.4,93,29.93,5.0,South,11.5,-,N/A,Rain,Light Rain,180,2012-10-13 20:11:00
4:32 PM,48.2,46.4,93,29.93,5.0,South,9.2,-,N/A,Rain,Rain,190,2012-10-13 20:32:00
4:52 PM,48.2,46.4,93,29.92,7.0,South,10.4,17.3,N/A,Rain,Light Rain,190,2012-10-13 20:52:00
5:12 PM,48.2,48.2,100,29.92,4.0,SSW,9.2,-,N/A,Rain,Rain,210,2012-10-13 21:12:00
5:32 PM,48.2,48.2,100,29.91,2.5,South,10.4,17.3,N/A,Rain,Light Rain,180,2012-10-13 21:32:00
5:52 PM,50.0,50.0,100,29.89,5.0,South,12.7,-,N/A,Rain,Light Rain,190,2012-10-13 21:52:00
6:12 PM,50.0,50.0,100,29.89,5.0,South,11.5,-,N/A,Rain,Light Rain,190,2012-10-13 22:12:00
6:52 PM,50.0,50.0,100,29.89,5.0,South,12.7,17.3,N/A,,Drizzle,190,2012-10-13 22:52:00
7:12 PM,50.0,50.0,100,29.88,4.0,South,12.7,18.4,N/A,Rain,Rain,190,2012-10-13 23:12:00
7:33 PM,50.0,50.0,100,29.86,7.0,South,9.2,-,N/A,Rain,Rain,190,2012-10-13 23:33:00
8:33 PM,51.8,51.8,100,29.84,7.0,SSW,9.2,-,N/A,Rain,Light Rain,200,2012-10-14 00:33:00
8:53 PM,51.8,51.8,100,29.83,7.0,South,10.4,-,N/A,Rain,Light Rain,190,2012-10-14 00:53:00
9:33 PM,53.6,53.6,100,29.83,4.0,SSW,10.4,-,N/A,,Overcast,200,2012-10-14 01:33:00
10:13 PM,55.4,55.4,100,29.83,4.0,SSW,11.5,18.4,N/A,,Overcast,210,2012-10-14 02:13:00
10:33 PM,55.4,55.4,100,29.83,3.0,SW,8.1,-,N/A,Rain,Rain,220,2012-10-14 02:33:00
10:54 PM,57.2,57.2,100,29.83,2.0,SW,12.7,16.1,N/A,Rain,Rain,220,2012-10-14 02:54:00
11:14 PM,57.2,57.2,100,29.82,2.0,SSW,12.7,-,N/A,,Drizzle,210,2012-10-14 03:14:00